Terug naar catalogus

STARLINK-5474

ActiefCommunicatieVLEO
NORAD 55665·PAYLOAD·🇺🇸 United States

Gelanceerd Feb 17, 2023 vanaf Vandenberg Space Force Base

Loading…

Volgende Passages (komende 24 uur)

TLE

VersSource: CelesTrak SupGP

Epoch: Sep 14, 2026, 21:25 UTC

1 55665C 23021AP  26257.89284722  .00020831  00000+0  17458-2 0  2576
2 55665  70.0022  47.3677 0002660 274.7267 183.0151 14.98318250    14

Volg STARLINK-5474 in realtime met AllMySat

Download on the App Store